Time,TemperatureF,DewpointF,PressureIn,WindDirection,WindDirectionDegrees,WindSpeedMPH,WindSpeedGustMPH,Humidity,HourlyPrecipIn,Conditions,Clouds,dailyrainin,SoftwareType,DateUTC
2013-04-11 00:00:00,70.0,57.7,29.92,SW,232,0.0,5.0,65,0.00,,CLR,0.00,VWS V14.01,2013-04-11 04:00:00,
2013-04-11 00:01:00,70.0,57.7,29.92,ESE,123,0.0,5.0,65,0.00,,CLR,0.00,VWS V14.01,2013-04-11 04:01:00,
2013-04-11 00:04:00,69.9,57.6,29.92,WSW,241,0.0,5.0,65,0.00,,CLR,0.00,VWS V14.01,2013-04-11 04:04:00,
2013-04-11 00:08:00,69.8,57.5,29.93,West,262,0.0,5.0,65,0.00,,CLR,0.00,VWS V14.01,2013-04-11 04:08:00,
2013-04-11 00:13:00,69.6,57.3,29.92,South,169,0.0,5.0,65,0.00,,CLR,0.00,VWS V14.01,2013-04-11 04:13:00,
2013-04-11 00:18:00,69.5,57.2,29.92,SSE,149,0.0,5.0,65,0.00,,CLR,0.00,VWS V14.01,2013-04-11 04:18:00,
2013-04-11 00:23:00,69.3,57.0,29.92,NW,312,1.0,5.0,65,0.00,,CLR,0.00,VWS V14.01,2013-04-11 04:23:00,
2013-04-11 00:28:00,69.1,56.8,29.92,SSW,211,0.0,5.0,65,0.00,,CLR,0.00,VWS V14.01,2013-04-11 04:28:00,
2013-04-11 00:33:00,69.0,57.2,29.93,WNW,296,0.0,5.0,66,0.00,,CLR,0.00,VWS V14.01,2013-04-11 04:33:00,
2013-04-11 00:38:00,68.8,57.0,29.93,South,185,0.0,5.0,66,0.00,,CLR,0.00,VWS V14.01,2013-04-11 04:38:00,
2013-04-11 00:43:00,68.7,56.9,29.93,South,186,0.0,5.0,66,0.00,,CLR,0.00,VWS V14.01,2013-04-11 04:43:00,
2013-04-11 00:48:00,68.6,56.8,29.93,South,175,0.0,5.0,66,0.00,,CLR,0.00,VWS V14.01,2013-04-11 04:48:00,
2013-04-11 00:53:00,68.4,56.6,29.93,SSE,167,0.0,5.0,66,0.00,,CLR,0.00,VWS V14.01,2013-04-11 04:53:00,
2013-04-11 00:58:00,68.3,56.5,29.93,SE,126,1.0,5.0,66,0.00,,CLR,0.00,VWS V14.01,2013-04-11 04:58:00,
2013-04-11 01:03:00,68.1,56.7,29.93,WSW,238,1.0,5.0,67,0.00,,CLR,0.00,VWS V14.01,2013-04-11 05:03:00,
2013-04-11 01:08:00,68.0,56.7,29.94,WSW,254,0.0,5.0,67,0.00,,CLR,0.00,VWS V14.01,2013-04-11 05:08:00,
2013-04-11 01:13:00,67.8,56.9,29.94,East,94,0.0,5.0,68,0.00,,CLR,0.00,VWS V14.01,2013-04-11 05:13:00,
2013-04-11 01:18:00,67.6,56.7,29.94,SW,230,1.0,5.0,68,0.00,,CLR,0.00,VWS V14.01,2013-04-11 05:18:00,
2013-04-11 01:23:00,67.4,56.5,29.94,SE,126,0.0,5.0,68,0.00,,CLR,0.00,VWS V14.01,2013-04-11 05:23:00,
2013-04-11 01:28:00,67.1,56.6,29.93,SSW,200,0.0,5.0,69,0.00,,CLR,0.00,VWS V14.01,2013-04-11 05:28:00,
2013-04-11 01:33:00,67.0,56.5,29.93,SSW,211,0.0,5.0,69,0.00,,CLR,0.00,VWS V14.01,2013-04-11 05:33:00,
2013-04-11 01:38:00,66.8,56.7,29.93,WSW,246,0.0,5.0,70,0.00,,CLR,0.00,VWS V14.01,2013-04-11 05:38:00,
2013-04-11 01:43:00,66.6,56.5,29.93,SSW,192,0.0,5.0,70,0.00,,CLR,0.00,VWS V14.01,2013-04-11 05:43:00,
2013-04-11 01:48:00,66.4,56.7,29.93,SSE,163,0.0,5.0,71,0.00,,CLR,0.00,VWS V14.01,2013-04-11 05:48:00,
2013-04-11 01:53:00,66.2,56.5,29.93,South,174,0.0,5.0,71,0.00,,CLR,0.00,VWS V14.01,2013-04-11 05:53:00,
2013-04-11 01:58:00,66.0,56.7,29.93,South,178,0.0,5.0,72,0.00,,CLR,0.00,VWS V14.01,2013-04-11 05:58:00,
2013-04-11 02:03:00,65.7,56.4,29.93,SSE,161,4.0,5.0,72,0.00,,CLR,0.00,VWS V14.01,2013-04-11 06:03:00,
2013-04-11 02:08:00,65.5,56.6,29.93,SSW,206,0.0,5.0,73,0.00,,CLR,0.00,VWS V14.01,2013-04-11 06:08:00,
2013-04-11 02:13:00,65.4,56.9,29.93,SSW,202,1.0,5.0,74,0.00,,CLR,0.00,VWS V14.01,2013-04-11 06:13:00,
2013-04-11 02:18:00,65.2,56.7,29.92,WSW,242,2.0,5.0,74,0.00,,CLR,0.00,VWS V14.01,2013-04-11 06:18:00,
2013-04-11 02:23:00,65.0,56.5,29.92,WSW,255,1.0,5.0,74,0.00,,CLR,0.00,VWS V14.01,2013-04-11 06:23:00,
2013-04-11 02:28:00,64.9,56.8,29.92,SSW,199,1.0,5.0,75,0.00,,CLR,0.00,VWS V14.01,2013-04-11 06:28:00,
2013-04-11 02:33:00,64.7,57.0,29.92,NW,310,2.0,5.0,76,0.00,,CLR,0.00,VWS V14.01,2013-04-11 06:33:00,
2013-04-11 02:38:00,64.5,56.8,29.92,South,182,2.0,5.0,76,0.00,,CLR,0.00,VWS V14.01,2013-04-11 06:38:00,
2013-04-11 02:43:00,64.4,57.0,29.92,South,186,0.0,5.0,77,0.00,,CLR,0.00,VWS V14.01,2013-04-11 06:43:00,
2013-04-11 02:48:00,64.3,57.3,29.92,NNW,342,0.0,5.0,78,0.00,,CLR,0.00,VWS V14.01,2013-04-11 06:48:00,
2013-04-11 02:53:00,64.1,57.1,29.92,South,186,1.0,5.0,78,0.00,,CLR,0.00,VWS V14.01,2013-04-11 06:53:00,
2013-04-11 02:58:00,63.9,57.3,29.92,South,179,0.0,5.0,79,0.00,,CLR,0.00,VWS V14.01,2013-04-11 06:58:00,
2013-04-11 03:03:00,63.8,57.5,29.92,SSW,193,1.0,5.0,80,0.00,,CLR,0.00,VWS V14.01,2013-04-11 07:03:00,
2013-04-11 03:08:00,63.6,57.3,29.92,SSE,161,0.0,5.0,80,0.00,,CLR,0.00,VWS V14.01,2013-04-11 07:08:00,
2013-04-11 03:13:00,63.5,57.6,29.92,WSW,244,0.0,5.0,81,0.00,,CLR,0.00,VWS V14.01,2013-04-11 07:13:00,
2013-04-11 03:18:00,63.4,57.5,29.92,WSW,244,0.0,5.0,81,0.00,,CLR,0.00,VWS V14.01,2013-04-11 07:18:00,
2013-04-11 03:23:00,63.2,57.6,29.92,SSW,203,0.0,5.0,82,0.00,,CLR,0.00,VWS V14.01,2013-04-11 07:23:00,
2013-04-11 03:28:00,63.1,57.5,29.92,SSW,203,0.0,5.0,82,0.00,,CLR,0.00,VWS V14.01,2013-04-11 07:28:00,
2013-04-11 03:33:00,63.0,57.8,29.92,SSW,203,0.0,5.0,83,0.00,,CLR,0.00,VWS V14.01,2013-04-11 07:33:00,
2013-04-11 03:38:00,62.8,57.6,29.92,SE,136,0.0,5.0,83,0.00,,CLR,0.00,VWS V14.01,2013-04-11 07:38:00,
2013-04-11 03:43:00,62.7,57.8,29.92,West,269,0.0,5.0,84,0.00,,CLR,0.00,VWS V14.01,2013-04-11 07:43:00,
2013-04-11 03:48:00,62.6,57.7,29.92,West,269,0.0,5.0,84,0.00,,CLR,0.00,VWS V14.01,2013-04-11 07:48:00,
2013-04-11 03:53:00,62.5,57.6,29.92,West,270,0.0,5.0,84,0.00,,CLR,0.00,VWS V14.01,2013-04-11 07:53:00,
2013-04-11 03:58:00,62.4,57.8,29.92,South,186,0.0,5.0,85,0.00,,CLR,0.00,VWS V14.01,2013-04-11 07:58:00,
2013-04-11 04:03:00,62.3,57.7,29.92,WSW,240,0.0,5.0,85,0.00,,BKN250,0.00,VWS V14.01,2013-04-11 08:03:00,
2013-04-11 04:08:00,62.2,57.6,29.92,West,273,1.0,5.0,85,0.00,,BKN250,0.00,VWS V14.01,2013-04-11 08:08:00,
2013-04-11 04:13:00,62.2,58.0,29.92,SW,234,1.0,5.0,86,0.00,,BKN250,0.00,VWS V14.01,2013-04-11 08:13:00,
2013-04-11 04:18:00,62.1,57.9,29.92,SW,234,0.0,5.0,86,0.00,,BKN250,0.00,VWS V14.01,2013-04-11 08:18:00,
2013-04-11 04:23:00,62.0,57.8,29.92,WSW,241,0.0,5.0,86,0.00,,BKN250,0.00,VWS V14.01,2013-04-11 08:23:00,
2013-04-11 04:28:00,61.9,58.0,29.92,WSW,238,0.0,5.0,87,0.00,,BKN250,0.00,VWS V14.01,2013-04-11 08:28:00,
2013-04-11 04:33:00,61.9,58.0,29.92,South,178,0.0,5.0,87,0.00,,BKN250,0.00,VWS V14.01,2013-04-11 08:33:00,
2013-04-11 04:38:00,61.8,57.9,29.92,South,178,0.0,5.0,87,0.00,,BKN250,0.00,VWS V14.01,2013-04-11 08:38:00,
2013-04-11 04:43:00,61.7,57.8,29.92,SSW,213,0.0,5.0,87,0.00,,BKN250,0.00,VWS V14.01,2013-04-11 08:43:00,
2013-04-11 04:48:00,61.6,58.0,29.92,SSW,213,0.0,5.0,88,0.00,,BKN250,0.00,VWS V14.01,2013-04-11 08:48:00,
2013-04-11 04:53:00,61.5,57.9,29.92,SW,215,0.0,5.0,88,0.00,,BKN250,0.00,VWS V14.01,2013-04-11 08:53:00,
2013-04-11 04:58:00,61.5,58.2,29.92,SW,215,0.0,5.0,89,0.00,,BKN250,0.00,VWS V14.01,2013-04-11 08:58:00,
2013-04-11 05:03:00,61.4,58.1,29.91,SSW,205,0.0,5.0,89,0.00,,OVC250,0.00,VWS V14.01,2013-04-11 09:03:00,
2013-04-11 05:08:00,61.3,58.0,29.92,SSW,207,0.0,5.0,89,0.00,,OVC250,0.00,VWS V14.01,2013-04-11 09:08:00,
2013-04-11 05:13:00,61.1,57.8,29.92,SSW,207,0.0,5.0,89,0.00,,OVC250,0.00,VWS V14.01,2013-04-11 09:13:00,
2013-04-11 05:18:00,61.0,58.0,29.91,SSW,207,0.0,5.0,90,0.00,,OVC250,0.00,VWS V14.01,2013-04-11 09:18:00,
2013-04-11 05:23:00,60.9,58.0,29.91,SSW,192,1.0,5.0,90,0.00,,OVC250,0.00,VWS V14.01,2013-04-11 09:23:00,
2013-04-11 05:29:00,60.9,58.3,29.91,SW,226,0.0,5.0,91,0.00,,OVC250,0.00,VWS V14.01,2013-04-11 09:29:00,
2013-04-11 05:34:00,60.9,58.3,29.91,SW,226,0.0,5.0,91,0.00,,OVC250,0.00,VWS V14.01,2013-04-11 09:34:00,
2013-04-11 05:39:00,60.8,58.2,29.92,SW,226,0.0,5.0,91,0.00,,OVC250,0.00,VWS V14.01,2013-04-11 09:39:00,
2013-04-11 05:44:00,60.7,58.1,29.91,SW,229,0.0,5.0,91,0.00,,OVC250,0.00,VWS V14.01,2013-04-11 09:44:00,
2013-04-11 05:49:00,60.7,58.1,29.91,SW,229,0.0,5.0,91,0.00,,OVC250,0.00,VWS V14.01,2013-04-11 09:49:00,
2013-04-11 05:54:00,60.6,58.0,29.91,SW,229,0.0,5.0,91,0.00,,OVC250,0.00,VWS V14.01,2013-04-11 09:54:00,
2013-04-11 05:59:00,60.5,58.2,29.92,SW,229,0.0,5.0,92,0.00,,OVC250,0.00,VWS V14.01,2013-04-11 09:59:00,
2013-04-11 06:04:00,60.5,58.2,29.92,SW,229,0.0,5.0,92,0.00,,OVC250,0.00,VWS V14.01,2013-04-11 10:04:00,
2013-04-11 06:09:00,60.5,58.2,29.92,SW,229,0.0,5.0,92,0.00,,OVC250,0.00,VWS V14.01,2013-04-11 10:09:00,
2013-04-11 06:14:00,60.4,58.1,29.92,SW,229,0.0,5.0,92,0.00,,OVC250,0.00,VWS V14.01,2013-04-11 10:14:00,
2013-04-11 06:19:00,60.4,58.4,29.92,SW,229,0.0,5.0,93,0.00,,OVC250,0.00,VWS V14.01,2013-04-11 10:19:00,
2013-04-11 06:24:00,60.4,58.4,29.92,SW,229,0.0,5.0,93,0.00,,OVC250,0.00,VWS V14.01,2013-04-11 10:24:00,
2013-04-11 06:29:00,60.4,58.4,29.92,SW,229,0.0,5.0,93,0.00,,OVC250,0.00,VWS V14.01,2013-04-11 10:29:00,
2013-04-11 06:34:00,60.5,58.5,29.93,SW,229,0.0,5.0,93,0.00,,OVC250,0.00,VWS V14.01,2013-04-11 10:34:00,
2013-04-11 06:39:00,60.5,58.5,29.93,West,271,0.0,5.0,93,0.00,,OVC250,0.00,VWS V14.01,2013-04-11 10:39:00,
2013-04-11 06:44:00,60.6,58.6,29.93,West,271,0.0,5.0,93,0.00,,OVC250,0.00,VWS V14.01,2013-04-11 10:44:00,
2013-04-11 06:49:00,60.7,58.7,29.93,West,271,0.0,5.0,93,0.00,,OVC250,0.00,VWS V14.01,2013-04-11 10:49:00,
2013-04-11 06:54:00,60.9,58.9,29.93,West,270,0.0,5.0,93,0.00,,OVC250,0.00,VWS V14.01,2013-04-11 10:54:00,
2013-04-11 06:59:00,61.1,59.1,29.93,SSE,168,0.0,5.0,93,0.00,,OVC250,0.00,VWS V14.01,2013-04-11 10:59:00,
2013-04-11 07:04:00,61.1,59.1,29.93,SSE,167,0.0,5.0,93,0.00,,OVC012,0.00,VWS V14.01,2013-04-11 11:04:00,
2013-04-11 07:09:00,61.3,59.3,29.93,South,169,0.0,5.0,93,0.00,,OVC012,0.00,VWS V14.01,2013-04-11 11:09:00,
2013-04-11 07:14:00,61.4,59.4,29.93,SSE,157,0.0,5.0,93,0.00,,OVC012,0.00,VWS V14.01,2013-04-11 11:14:00,
2013-04-11 07:19:00,61.5,59.5,29.93,SSE,156,0.0,5.0,93,0.00,,OVC012,0.00,VWS V14.01,2013-04-11 11:19:00,
2013-04-11 07:24:00,61.6,59.6,29.93,East,91,0.0,5.0,93,0.00,,OVC012,0.00,VWS V14.01,2013-04-11 11:24:00,
2013-04-11 07:29:00,61.7,59.7,29.94,SE,128,0.0,5.0,93,0.00,,OVC012,0.00,VWS V14.01,2013-04-11 11:29:00,
2013-04-11 07:34:00,61.9,59.9,29.94,SSE,157,0.0,5.0,93,0.00,,OVC008,0.00,VWS V14.01,2013-04-11 11:34:00,
2013-04-11 07:39:00,62.0,60.0,29.94,SSE,157,0.0,5.0,93,0.00,,OVC008,0.00,VWS V14.01,2013-04-11 11:39:00,
2013-04-11 07:44:00,62.2,60.2,29.94,SSE,157,0.0,5.0,93,0.00,,OVC008,0.00,VWS V14.01,2013-04-11 11:44:00,
2013-04-11 07:49:00,62.3,60.2,29.94,NE,50,0.0,5.0,93,0.00,,OVC008,0.00,VWS V14.01,2013-04-11 11:49:00,
2013-04-11 07:54:00,62.5,60.2,29.94,South,180,0.0,5.0,92,0.00,,OVC008,0.00,VWS V14.01,2013-04-11 11:54:00,
2013-04-11 07:59:00,62.6,60.2,29.94,South,180,0.0,5.0,92,0.00,,OVC008,0.00,VWS V14.01,2013-04-11 11:59:00,
2013-04-11 08:04:00,62.8,60.5,29.94,WNW,302,0.0,5.0,92,0.00,,OVC008,0.00,VWS V14.01,2013-04-11 12:04:00,
2013-04-11 08:09:00,62.9,60.5,29.94,WNW,298,0.0,5.0,92,0.00,,OVC008,0.00,VWS V14.01,2013-04-11 12:09:00,
2013-04-11 08:14:00,63.0,60.3,29.94,WNW,298,0.0,5.0,91,0.00,,OVC008,0.00,VWS V14.01,2013-04-11 12:14:00,
2013-04-11 08:19:00,63.2,60.5,29.94,NNW,342,0.0,5.0,91,0.00,,OVC008,0.00,VWS V14.01,2013-04-11 12:19:00,
2013-04-11 08:24:00,63.4,60.7,29.94,West,259,0.0,5.0,91,0.00,,OVC008,0.00,VWS V14.01,2013-04-11 12:24:00,
2013-04-11 08:29:00,63.5,60.5,29.94,NNE,30,0.0,5.0,90,0.00,,OVC008,0.00,VWS V14.01,2013-04-11 12:29:00,
2013-04-11 08:34:00,63.7,60.7,29.95,NE,42,1.0,5.0,90,0.00,,OVC008,0.00,VWS V14.01,2013-04-11 12:34:00,
2013-04-11 08:39:00,63.9,60.9,29.94,SW,221,0.0,5.0,90,0.00,,OVC008,0.00,VWS V14.01,2013-04-11 12:39:00,
2013-04-11 08:44:00,64.0,60.7,29.94,NNW,335,0.0,5.0,89,0.00,,OVC008,0.00,VWS V14.01,2013-04-11 12:44:00,
2013-04-11 08:49:00,64.2,60.9,29.94,WSW,244,1.0,5.0,89,0.00,,OVC008,0.00,VWS V14.01,2013-04-11 12:49:00,
2013-04-11 08:54:00,64.5,60.9,29.94,SW,229,0.0,5.0,88,0.00,,OVC008,0.00,VWS V14.01,2013-04-11 12:54:00,
2013-04-11 08:59:00,64.8,61.2,29.94,SSE,148,0.0,5.0,88,0.00,,OVC008,0.00,VWS V14.01,2013-04-11 12:59:00,
2013-04-11 09:04:00,65.2,61.6,29.94,ENE,57,1.0,5.0,88,0.00,,OVC008,0.00,VWS V14.01,2013-04-11 13:04:00,
2013-04-11 09:09:00,65.4,61.1,29.94,NNW,347,1.0,5.0,86,0.00,,OVC008,0.00,VWS V14.01,2013-04-11 13:09:00,
2013-04-11 09:14:00,65.6,61.3,29.94,SSW,213,1.0,5.0,86,0.00,,OVC008,0.00,VWS V14.01,2013-04-11 13:14:00,
2013-04-11 09:19:00,65.8,61.5,29.94,WNW,294,0.0,5.0,86,0.00,,OVC008,0.00,VWS V14.01,2013-04-11 13:19:00,
2013-04-11 09:24:00,66.1,61.8,29.94,NNW,329,0.0,5.0,86,0.00,,OVC008,0.00,VWS V14.01,2013-04-11 13:24:00,
2013-04-11 09:29:00,66.3,61.7,29.94,WSW,257,1.0,5.0,85,0.00,,OVC008,0.00,VWS V14.01,2013-04-11 13:29:00,
2013-04-11 09:34:00,66.6,62.0,29.94,ENE,57,0.0,5.0,85,0.00,,OVC010,0.00,VWS V14.01,2013-04-11 13:34:00,
2013-04-11 09:39:00,66.9,62.2,29.94,ENE,59,0.0,5.0,85,0.00,,OVC010,0.00,VWS V14.01,2013-04-11 13:39:00,
2013-04-11 09:44:00,67.2,62.2,29.94,ENE,61,0.0,5.0,84,0.00,,OVC010,0.00,VWS V14.01,2013-04-11 13:44:00,
2013-04-11 09:49:00,67.5,62.2,29.94,SSW,203,0.0,5.0,83,0.00,,OVC010,0.00,VWS V14.01,2013-04-11 13:49:00,
2013-04-11 09:54:00,67.6,61.9,29.94,SW,223,0.0,5.0,82,0.00,,OVC010,0.00,VWS V14.01,2013-04-11 13:54:00,
2013-04-11 09:59:00,67.6,61.9,29.95,SW,223,0.0,5.0,82,0.00,,OVC010,0.00,VWS V14.01,2013-04-11 13:59:00,
2013-04-11 10:04:00,67.7,62.0,29.95,SW,223,0.0,5.0,82,0.00,,OVC012,0.00,VWS V14.01,2013-04-11 14:04:00,
2013-04-11 10:09:00,67.7,62.4,29.94,WSW,248,0.0,5.0,83,0.00,,OVC012,0.00,VWS V14.01,2013-04-11 14:09:00,
2013-04-11 10:14:00,67.6,62.3,29.94,WSW,253,0.0,5.0,83,0.00,,OVC012,0.00,VWS V14.01,2013-04-11 14:14:00,
2013-04-11 10:19:00,67.8,62.1,29.94,WSW,253,0.0,5.0,82,0.00,,OVC012,0.00,VWS V14.01,2013-04-11 14:19:00,
2013-04-11 10:24:00,67.9,62.2,29.95,WSW,253,0.0,5.0,82,0.00,,OVC012,0.00,VWS V14.01,2013-04-11 14:24:00,
2013-04-11 10:29:00,68.0,62.3,29.95,WNW,300,0.0,5.0,82,0.00,,OVC012,0.00,VWS V14.01,2013-04-11 14:29:00,
2013-04-11 10:34:00,68.1,62.4,29.95,SSE,152,0.0,5.0,82,0.00,,OVC012,0.00,VWS V14.01,2013-04-11 14:34:00,
2013-04-11 10:39:00,68.2,62.5,29.95,South,183,1.0,5.0,82,0.00,,OVC012,0.00,VWS V14.01,2013-04-11 14:39:00,
2013-04-11 10:44:00,68.3,62.6,29.94,South,181,0.0,5.0,82,0.00,,OVC012,0.00,VWS V14.01,2013-04-11 14:44:00,
2013-04-11 10:49:00,68.5,62.5,29.94,SSE,153,0.0,5.0,81,0.00,,OVC012,0.00,VWS V14.01,2013-04-11 14:49:00,
2013-04-11 10:54:00,68.6,62.5,29.95,SSW,194,0.0,5.0,81,0.00,,OVC012,0.00,VWS V14.01,2013-04-11 14:54:00,
2013-04-11 10:59:00,69.0,62.9,29.95,South,173,1.0,5.0,81,0.00,,OVC012,0.00,VWS V14.01,2013-04-11 14:59:00,
2013-04-11 11:04:00,69.3,62.9,29.95,WSW,243,0.0,5.0,80,0.00,,OVC014,0.00,VWS V14.01,2013-04-11 15:04:00,
2013-04-11 11:09:00,69.7,62.9,29.94,WSW,244,0.0,5.0,79,0.00,,OVC014,0.00,VWS V14.01,2013-04-11 15:09:00,
2013-04-11 11:14:00,70.1,63.3,29.94,WSW,250,1.0,5.0,79,0.00,,OVC014,0.00,VWS V14.01,2013-04-11 15:14:00,
2013-04-11 11:19:00,70.4,63.2,29.94,West,266,2.0,5.0,78,0.00,,OVC014,0.00,VWS V14.01,2013-04-11 15:19:00,
2013-04-11 11:24:00,70.6,63.4,29.94,West,274,1.0,5.0,78,0.00,,OVC014,0.00,VWS V14.01,2013-04-11 15:24:00,
2013-04-11 11:29:00,71.1,63.5,29.94,WSW,258,0.0,5.0,77,0.00,,OVC014,0.00,VWS V14.01,2013-04-11 15:29:00,
2013-04-11 11:34:00,71.7,63.7,29.93,NW,321,0.0,5.0,76,0.00,,OVC016,0.00,VWS V14.01,2013-04-11 15:34:00,
2013-04-11 11:39:00,72.1,63.8,29.93,SSW,192,0.0,5.0,75,0.00,,OVC016,0.00,VWS V14.01,2013-04-11 15:39:00,
2013-04-11 11:44:00,72.5,63.8,29.93,NW,311,0.0,5.0,74,0.00,,OVC016,0.00,VWS V14.01,2013-04-11 15:44:00,
2013-04-11 11:49:00,72.7,63.9,29.93,South,179,1.0,5.0,74,0.00,,OVC016,0.00,VWS V14.01,2013-04-11 15:49:00,
2013-04-11 11:54:00,72.8,63.7,29.93,West,259,0.0,5.0,73,0.00,,OVC016,0.00,VWS V14.01,2013-04-11 15:54:00,
2013-04-11 11:59:00,72.8,63.7,29.93,SSE,147,0.0,5.0,73,0.00,,OVC016,0.00,VWS V14.01,2013-04-11 15:59:00,
2013-04-11 12:04:00,73.0,63.8,29.92,SE,143,1.0,5.0,73,0.00,,OVC018,0.00,VWS V14.01,2013-04-11 16:04:00,
2013-04-11 12:09:00,73.2,64.0,29.92,SSE,165,0.0,5.0,73,0.00,,OVC018,0.00,VWS V14.01,2013-04-11 16:09:00,
2013-04-11 12:14:00,73.5,64.3,29.92,SSE,165,0.0,5.0,73,0.00,,OVC018,0.00,VWS V14.01,2013-04-11 16:14:00,
2013-04-11 12:19:00,73.8,64.2,29.92,South,186,1.0,5.0,72,0.00,,OVC018,0.00,VWS V14.01,2013-04-11 16:19:00,
2013-04-11 12:24:00,74.1,64.1,29.92,South,190,3.0,5.0,71,0.00,,OVC018,0.00,VWS V14.01,2013-04-11 16:24:00,
2013-04-11 12:29:00,74.5,64.5,29.91,SW,234,0.0,5.0,71,0.00,,OVC018,0.00,VWS V14.01,2013-04-11 16:29:00,
2013-04-11 12:34:00,75.0,64.2,29.91,East,83,0.0,5.0,69,0.00,,OVC018,0.00,VWS V14.01,2013-04-11 16:34:00,
2013-04-11 12:39:00,75.3,64.4,29.90,WSW,257,1.0,5.0,69,0.00,,OVC018,0.00,VWS V14.01,2013-04-11 16:39:00,
2013-04-11 12:44:00,75.5,64.2,29.90,South,184,0.0,5.0,68,0.00,,OVC018,0.00,VWS V14.01,2013-04-11 16:44:00,
2013-04-11 12:49:00,76.1,64.8,29.89,East,83,0.0,5.0,68,0.00,,OVC018,0.00,VWS V14.01,2013-04-11 16:49:00,
2013-04-11 12:54:00,76.8,64.2,29.89,SE,139,1.0,5.0,65,0.00,,OVC018,0.00,VWS V14.01,2013-04-11 16:54:00,
2013-04-11 12:59:00,77.4,64.3,29.88,NNE,12,1.0,5.0,64,0.00,,OVC018,0.00,VWS V14.01,2013-04-11 16:59:00,
2013-04-11 13:05:00,78.2,63.7,29.88,East,86,1.0,5.0,61,0.00,,OVC250,0.00,VWS V14.01,2013-04-11 17:05:00,
2013-04-11 13:10:00,79.1,64.0,29.88,WNW,296,1.0,5.0,60,0.00,,OVC250,0.00,VWS V14.01,2013-04-11 17:10:00,
2013-04-11 13:15:00,79.7,63.1,29.88,SSW,210,1.0,5.0,57,0.00,,OVC250,0.00,VWS V14.01,2013-04-11 17:15:00,
2013-04-11 13:20:00,79.1,62.6,29.88,South,188,2.0,5.0,57,0.00,,OVC250,0.00,VWS V14.01,2013-04-11 17:20:00,
2013-04-11 13:25:00,78.5,62.5,29.87,NW,313,2.0,5.0,58,0.00,,OVC250,0.00,VWS V14.01,2013-04-11 17:25:00,
2013-04-11 13:30:00,78.3,62.3,29.87,SSW,199,1.0,5.0,58,0.00,,OVC250,0.00,VWS V14.01,2013-04-11 17:30:00,
2013-04-11 13:35:00,78.0,62.0,29.87,WNW,284,0.0,5.0,58,0.00,,OVC250,0.00,VWS V14.01,2013-04-11 17:35:00,
2013-04-11 13:40:00,78.3,62.8,29.87,WNW,294,0.0,5.0,59,0.00,,OVC250,0.00,VWS V14.01,2013-04-11 17:40:00,
2013-04-11 13:45:00,78.4,62.9,29.87,WSW,257,2.0,5.0,59,0.00,,OVC250,0.00,VWS V14.01,2013-04-11 17:45:00,
2013-04-11 13:50:00,78.0,62.5,29.87,SSE,148,2.0,5.0,59,0.00,,OVC250,0.00,VWS V14.01,2013-04-11 17:50:00,
2013-04-11 13:55:00,77.6,62.6,29.87,SSW,194,3.0,5.0,60,0.00,,OVC250,0.00,VWS V14.01,2013-04-11 17:55:00,
2013-04-11 14:00:00,77.4,62.9,29.86,SSW,198,2.0,5.0,61,0.00,,OVC250,0.00,VWS V14.01,2013-04-11 18:00:00,
2013-04-11 14:05:00,77.3,62.8,29.86,NW,312,0.0,5.0,61,0.00,,BKN250,0.00,VWS V14.01,2013-04-11 18:05:00,
2013-04-11 14:10:00,77.4,62.9,29.86,SSE,167,1.0,5.0,61,0.00,,BKN250,0.00,VWS V14.01,2013-04-11 18:10:00,
2013-04-11 14:15:00,78.0,63.0,29.86,SE,144,0.0,5.0,60,0.00,,BKN250,0.00,VWS V14.01,2013-04-11 18:15:00,
2013-04-11 14:20:00,78.4,62.4,29.85,SSW,193,1.0,5.0,58,0.00,,BKN250,0.00,VWS V14.01,2013-04-11 18:20:00,
2013-04-11 14:25:00,78.5,63.0,29.85,NW,304,2.0,5.0,59,0.00,,BKN250,0.00,VWS V14.01,2013-04-11 18:25:00,
2013-04-11 14:30:00,78.6,62.6,29.85,West,267,4.0,5.0,58,0.00,,BKN250,0.00,VWS V14.01,2013-04-11 18:30:00,
2013-04-11 14:35:00,78.3,62.3,29.85,West,269,2.0,5.0,58,0.00,,BKN250,0.00,VWS V14.01,2013-04-11 18:35:00,
2013-04-11 14:40:00,78.3,62.3,29.84,SSW,195,2.0,5.0,58,0.00,,BKN250,0.00,VWS V14.01,2013-04-11 18:40:00,
2013-04-11 14:45:00,78.8,62.3,29.84,SSW,211,1.0,5.0,57,0.00,,BKN250,0.00,VWS V14.01,2013-04-11 18:45:00,
2013-04-11 14:50:00,79.6,61.5,29.84,SSW,202,3.0,5.0,54,0.00,,BKN250,0.00,VWS V14.01,2013-04-11 18:50:00,
2013-04-11 14:55:00,80.0,61.3,29.83,WSW,244,2.0,5.0,53,0.00,,BKN250,0.00,VWS V14.01,2013-04-11 18:55:00,
2013-04-11 15:00:00,80.5,61.8,29.83,ESE,107,2.0,5.0,53,0.00,,BKN250,0.00,VWS V14.01,2013-04-11 19:00:00,
2013-04-11 15:05:00,80.9,61.6,29.83,North,360,0.0,5.0,52,0.00,,BKN250,0.00,VWS V14.01,2013-04-11 19:05:00,
2013-04-11 15:10:00,81.1,61.3,29.83,NW,312,0.0,5.0,51,0.00,,BKN250,0.00,VWS V14.01,2013-04-11 19:10:00,
2013-04-11 15:15:00,81.2,61.9,29.82,NW,319,0.0,5.0,52,0.00,,BKN250,0.00,VWS V14.01,2013-04-11 19:15:00,
2013-04-11 15:20:00,81.5,62.2,29.82,SW,217,2.0,5.0,52,0.00,,BKN250,0.00,VWS V14.01,2013-04-11 19:20:00,
2013-04-11 15:25:00,81.3,61.5,29.81,WSW,237,0.0,5.0,51,0.00,,BKN250,0.00,VWS V14.01,2013-04-11 19:25:00,
2013-04-11 15:30:00,81.2,62.5,29.81,NNE,32,1.0,5.0,53,0.00,,BKN250,0.00,VWS V14.01,2013-04-11 19:30:00,
2013-04-11 15:35:00,81.0,62.3,29.81,SSW,198,2.0,5.0,53,0.00,,BKN250,0.00,VWS V14.01,2013-04-11 19:35:00,
2013-04-11 15:40:00,80.8,62.1,29.81,South,186,0.0,5.0,53,0.00,,BKN250,0.00,VWS V14.01,2013-04-11 19:40:00,
2013-04-11 15:45:00,80.4,61.7,29.80,West,268,0.0,5.0,53,0.00,,BKN250,0.00,VWS V14.01,2013-04-11 19:45:00,
2013-04-11 15:50:00,80.4,62.2,29.80,SSW,196,2.0,5.0,54,0.00,,BKN250,0.00,VWS V14.01,2013-04-11 19:50:00,
2013-04-11 15:55:00,80.4,61.7,29.79,SW,234,0.0,5.0,53,0.00,,BKN250,0.00,VWS V14.01,2013-04-11 19:55:00,
2013-04-11 16:00:00,80.3,62.7,29.79,East,83,1.0,5.0,55,0.00,,BKN250,0.00,VWS V14.01,2013-04-11 20:00:00,
2013-04-11 16:05:00,80.1,62.5,29.79,SW,216,0.0,5.0,55,0.00,,BKN250,0.00,VWS V14.01,2013-04-11 20:05:00,
2013-04-11 16:10:00,79.8,62.2,29.79,South,176,2.0,5.0,55,0.00,,BKN250,0.00,VWS V14.01,2013-04-11 20:10:00,
2013-04-11 16:15:00,79.7,62.1,29.78,NNW,346,0.0,5.0,55,0.00,,BKN250,0.00,VWS V14.01,2013-04-11 20:15:00,
2013-04-11 16:20:00,79.8,62.7,29.78,NNW,346,0.0,5.0,56,0.00,,BKN250,0.00,VWS V14.01,2013-04-11 20:20:00,
2013-04-11 16:25:00,79.8,62.7,29.78,SW,219,1.0,5.0,56,0.00,,BKN250,0.00,VWS V14.01,2013-04-11 20:25:00,
2013-04-11 16:30:00,79.8,62.7,29.77,SSE,152,3.0,5.0,56,0.00,,BKN250,0.00,VWS V14.01,2013-04-11 20:30:00,
2013-04-11 16:35:00,79.9,62.8,29.77,WSW,249,1.0,5.0,56,0.00,,BKN250,0.00,VWS V14.01,2013-04-11 20:35:00,
2013-04-11 16:40:00,80.5,63.4,29.77,NNW,331,1.0,5.0,56,0.00,,BKN250,0.00,VWS V14.01,2013-04-11 20:40:00,
2013-04-11 16:45:00,81.0,63.3,29.76,WSW,237,1.0,5.0,55,0.00,,BKN250,0.00,VWS V14.01,2013-04-11 20:45:00,
2013-04-11 16:50:00,81.5,62.7,29.76,SSW,194,3.0,5.0,53,0.00,,BKN250,0.00,VWS V14.01,2013-04-11 20:50:00,
2013-04-11 16:55:00,81.4,62.6,29.76,SSW,193,4.0,5.0,53,0.00,,BKN250,0.00,VWS V14.01,2013-04-11 20:55:00,
2013-04-11 17:00:00,81.0,62.8,29.75,SW,220,1.0,5.0,54,0.00,,BKN250,0.00,VWS V14.01,2013-04-11 21:00:00,
2013-04-11 17:05:00,80.7,62.5,29.75,WSW,246,3.0,5.0,54,0.00,,BKN250,0.00,VWS V14.01,2013-04-11 21:05:00,
2013-04-11 17:10:00,80.3,62.2,29.75,SSW,202,4.0,5.0,54,0.00,,BKN250,0.00,VWS V14.01,2013-04-11 21:10:00,
2013-04-11 17:15:00,80.2,62.6,29.75,SW,219,0.0,5.0,55,0.00,,BKN250,0.00,VWS V14.01,2013-04-11 21:15:00,
2013-04-11 17:20:00,80.3,62.7,29.75,WSW,248,0.0,5.0,55,0.00,,BKN250,0.00,VWS V14.01,2013-04-11 21:20:00,
2013-04-11 17:25:00,80.7,62.0,29.75,SSW,204,1.0,5.0,53,0.00,,BKN250,0.00,VWS V14.01,2013-04-11 21:25:00,
2013-04-11 17:30:00,81.2,63.0,29.75,SW,229,2.0,5.0,54,0.00,,BKN250,0.00,VWS V14.01,2013-04-11 21:30:00,
2013-04-11 17:35:00,81.6,62.3,29.75,South,179,1.0,5.0,52,0.00,,BKN250,0.00,VWS V14.01,2013-04-11 21:35:00,
2013-04-11 17:40:00,81.6,61.7,29.75,SW,232,1.0,5.0,51,0.00,,BKN250,0.00,VWS V14.01,2013-04-11 21:40:00,
2013-04-11 17:46:00,81.7,62.4,29.75,NNE,12,1.0,5.0,52,0.00,,BKN250,0.00,VWS V14.01,2013-04-11 21:46:00,
2013-04-11 17:51:00,81.7,62.9,29.75,WSW,240,2.0,5.0,53,0.00,,BKN250,0.00,VWS V14.01,2013-04-11 21:51:00,
2013-04-11 17:56:00,81.4,62.6,29.75,SW,219,0.0,5.0,53,0.00,,BKN250,0.00,VWS V14.01,2013-04-11 21:56:00,
2013-04-11 18:01:00,80.9,63.2,29.75,South,177,0.0,5.0,55,0.00,,BKN250,0.00,VWS V14.01,2013-04-11 22:01:00,
2013-04-11 18:06:00,80.3,63.2,29.75,SSW,207,0.0,5.0,56,0.00,,BKN250,0.00,VWS V14.01,2013-04-11 22:06:00,
2013-04-11 18:11:00,80.1,63.0,29.75,SSW,209,0.0,5.0,56,0.00,,BKN250,0.00,VWS V14.01,2013-04-11 22:11:00,
2013-04-11 18:16:00,79.9,62.8,29.75,West,262,1.0,5.0,56,0.00,,BKN250,0.00,VWS V14.01,2013-04-11 22:16:00,
2013-04-11 18:21:00,79.8,63.2,29.75,SSE,168,1.0,5.0,57,0.00,,BKN250,0.00,VWS V14.01,2013-04-11 22:21:00,
2013-04-11 18:26:00,79.6,63.0,29.74,South,174,1.0,5.0,57,0.00,,BKN250,0.00,VWS V14.01,2013-04-11 22:26:00,
2013-04-11 18:31:00,79.4,62.9,29.74,SE,137,2.0,5.0,57,0.00,,BKN250,0.00,VWS V14.01,2013-04-11 22:31:00,
2013-04-11 18:36:00,79.2,63.2,29.74,NW,308,0.0,5.0,58,0.00,,BKN250,0.00,VWS V14.01,2013-04-11 22:36:00,
2013-04-11 18:41:00,79.0,63.5,29.74,SE,131,0.0,5.0,59,0.00,,BKN250,0.00,VWS V14.01,2013-04-11 22:41:00,
2013-04-11 18:46:00,78.8,63.3,29.74,South,186,0.0,5.0,59,0.00,,BKN250,0.00,VWS V14.01,2013-04-11 22:46:00,
2013-04-11 18:51:00,78.7,63.2,29.74,South,185,2.0,5.0,59,0.00,,BKN250,0.00,VWS V14.01,2013-04-11 22:51:00,
2013-04-11 18:56:00,78.5,63.0,29.74,SW,215,0.0,5.0,59,0.00,,BKN250,0.00,VWS V14.01,2013-04-11 22:56:00,
2013-04-11 19:01:00,78.4,62.9,29.74,SW,217,1.0,5.0,59,0.00,,BKN250,0.00,VWS V14.01,2013-04-11 23:01:00,
2013-04-11 19:06:00,78.2,62.2,29.75,SSE,166,0.0,5.0,58,0.00,,BKN250,0.00,VWS V14.01,2013-04-11 23:06:00,
2013-04-11 19:11:00,78.0,62.5,29.74,South,177,0.0,5.0,59,0.00,,BKN250,0.00,VWS V14.01,2013-04-11 23:11:00,
2013-04-11 19:17:00,77.9,62.4,29.74,SW,221,2.0,5.0,59,0.00,,BKN250,0.00,VWS V14.01,2013-04-11 23:17:00,
2013-04-11 19:22:00,77.7,62.2,29.74,SSW,194,0.0,5.0,59,0.00,,BKN250,0.00,VWS V14.01,2013-04-11 23:22:00,
2013-04-11 19:27:00,77.6,62.2,29.74,South,181,1.0,5.0,59,0.00,,BKN250,0.00,VWS V14.01,2013-04-11 23:27:00,
2013-04-11 19:32:00,77.5,62.5,29.74,SSW,195,0.0,5.0,60,0.00,,BKN250,0.00,VWS V14.01,2013-04-11 23:32:00,
2013-04-11 19:37:00,77.3,62.3,29.74,West,259,0.0,5.0,60,0.00,,BKN250,0.00,VWS V14.01,2013-04-11 23:37:00,
2013-04-11 19:44:00,77.1,62.6,29.74,SSW,193,1.0,5.0,61,0.00,,BKN250,0.00,VWS V14.01,2013-04-11 23:44:00,
2013-04-11 19:49:00,77.0,62.5,29.74,South,189,1.0,5.0,61,0.00,,BKN250,0.00,VWS V14.01,2013-04-11 23:49:00,
2013-04-11 19:55:00,76.9,62.9,29.73,South,189,0.0,5.0,62,0.00,,BKN250,0.00,VWS V14.01,2013-04-11 23:55:00,
2013-04-11 20:01:00,76.7,63.2,29.73,South,189,0.0,5.0,63,0.00,,OVC200,0.00,VWS V14.01,2013-04-12 00:01:00,
2013-04-11 20:06:00,76.5,63.4,29.73,South,189,0.0,5.0,64,0.00,,OVC200,0.00,VWS V14.01,2013-04-12 00:06:00,
2013-04-11 20:11:00,76.4,63.3,29.73,South,189,0.0,5.0,64,0.00,,OVC200,0.00,VWS V14.01,2013-04-12 00:11:00,
2013-04-11 20:17:00,76.2,63.6,29.73,SSW,198,1.0,5.0,65,0.00,,OVC200,0.00,VWS V14.01,2013-04-12 00:17:00,
2013-04-11 20:22:00,76.0,63.4,29.72,ENE,70,2.0,5.0,65,0.00,,OVC200,0.00,VWS V14.01,2013-04-12 00:22:00,
2013-04-11 20:27:00,75.8,63.6,29.72,East,96,0.0,5.0,66,0.00,,OVC200,0.00,VWS V14.01,2013-04-12 00:27:00,
2013-04-11 20:32:00,75.6,64.3,29.72,South,182,3.0,5.0,68,0.00,,OVC200,0.00,VWS V14.01,2013-04-12 00:32:00,
2013-04-11 20:37:00,75.3,64.8,29.73,SW,214,0.0,5.0,70,0.00,,OVC200,0.00,VWS V14.01,2013-04-12 00:37:00,
2013-04-11 20:42:00,75.1,65.1,29.73,South,188,0.0,5.0,71,0.00,,OVC200,0.00,VWS V14.01,2013-04-12 00:42:00,
2013-04-11 20:47:00,74.8,65.2,29.73,WSW,242,1.0,5.0,72,0.00,,OVC200,0.00,VWS V14.01,2013-04-12 00:47:00,
2013-04-11 20:52:00,74.5,65.3,29.73,SSE,163,6.0,6.0,73,0.00,,OVC200,0.00,VWS V14.01,2013-04-12 00:52:00,
2013-04-11 20:57:00,74.1,64.9,29.73,SSE,165,4.0,5.0,73,0.00,,OVC200,0.00,VWS V14.01,2013-04-12 00:57:00,
2013-04-11 21:02:00,73.9,65.1,29.74,South,178,2.0,5.0,74,0.00,,BKN200,0.00,VWS V14.01,2013-04-12 01:02:00,
2013-04-11 21:07:00,73.7,65.3,29.74,SSW,206,3.0,5.0,75,0.00,,BKN200,0.00,VWS V14.01,2013-04-12 01:07:00,
2013-04-11 21:12:00,73.3,65.3,29.74,SSW,211,1.0,5.0,76,0.00,,BKN200,0.00,VWS V14.01,2013-04-12 01:12:00,
2013-04-11 21:17:00,73.0,65.7,29.74,NW,311,0.0,5.0,78,0.00,,BKN200,0.00,VWS V14.01,2013-04-12 01:17:00,
2013-04-11 21:22:00,72.6,65.7,29.74,SSE,150,0.0,5.0,79,0.00,,BKN200,0.00,VWS V14.01,2013-04-12 01:22:00,
2013-04-11 21:27:00,72.3,66.2,29.74,WSW,248,3.0,5.0,81,0.00,,BKN200,0.00,VWS V14.01,2013-04-12 01:27:00,
2013-04-11 21:32:00,71.8,66.4,29.74,ENE,73,1.0,5.0,83,0.00,,BKN200,0.00,VWS V14.01,2013-04-12 01:32:00,
2013-04-11 21:37:00,71.3,66.2,29.73,South,180,0.0,5.0,84,0.00,,BKN200,0.00,VWS V14.01,2013-04-12 01:37:00,
2013-04-11 21:42:00,71.1,66.0,29.73,South,182,1.0,5.0,84,0.00,,BKN200,0.00,VWS V14.01,2013-04-12 01:42:00,
2013-04-11 21:47:00,71.0,66.3,29.73,South,173,0.0,5.0,85,0.00,,BKN200,0.00,VWS V14.01,2013-04-12 01:47:00,
2013-04-11 21:52:00,70.8,66.1,29.73,SSW,203,0.0,5.0,85,0.00,,BKN200,0.00,VWS V14.01,2013-04-12 01:52:00,
2013-04-11 21:57:00,70.7,66.0,29.73,SSW,194,2.0,5.0,85,0.00,,BKN200,0.00,VWS V14.01,2013-04-12 01:57:00,
2013-04-11 22:02:00,70.7,66.0,29.74,SW,220,1.0,5.0,85,0.00,,-RA,0.00,VWS V14.01,2013-04-12 02:02:00,
2013-04-11 22:07:00,70.6,65.9,29.74,WSW,254,0.0,5.0,85,0.00,,-RA,0.00,VWS V14.01,2013-04-12 02:07:00,
2013-04-11 22:12:00,70.7,66.0,29.73,SW,220,1.0,5.0,85,0.00,,-RA,0.00,VWS V14.01,2013-04-12 02:12:00,
2013-04-11 22:17:00,70.6,65.9,29.74,SW,217,0.0,5.0,85,0.00,,-RA,0.00,VWS V14.01,2013-04-12 02:17:00,
2013-04-11 22:22:00,70.5,65.8,29.74,SW,215,0.0,5.0,85,0.00,,-RA,0.00,VWS V14.01,2013-04-12 02:22:00,
2013-04-11 22:27:00,70.6,65.9,29.74,SW,222,0.0,5.0,85,0.00,,-RA,0.00,VWS V14.01,2013-04-12 02:27:00,
2013-04-11 22:32:00,70.6,65.9,29.74,SW,225,1.0,5.0,85,0.00,,-RA,0.00,VWS V14.01,2013-04-12 02:32:00,
2013-04-11 22:37:00,70.6,65.9,29.73,SSW,200,3.0,5.0,85,0.00,,-RA,0.00,VWS V14.01,2013-04-12 02:37:00,
2013-04-11 22:42:00,70.7,65.6,29.73,WSW,252,1.0,5.0,84,0.00,,-RA,0.00,VWS V14.01,2013-04-12 02:42:00,
2013-04-11 22:47:00,70.8,65.7,29.74,SW,232,0.0,5.0,84,0.00,,-RA,0.00,VWS V14.01,2013-04-12 02:47:00,
2013-04-11 22:52:00,70.8,65.7,29.74,SSW,192,1.0,5.0,84,0.00,,-RA,0.00,VWS V14.01,2013-04-12 02:52:00,
2013-04-11 22:57:00,70.7,65.6,29.73,South,187,2.0,5.0,84,0.00,,-RA,0.00,VWS V14.01,2013-04-12 02:57:00,
2013-04-11 23:02:00,70.7,65.6,29.73,SSW,206,5.0,5.0,84,0.00,,OVC110,0.00,VWS V14.01,2013-04-12 03:02:00,
2013-04-11 23:07:00,70.7,65.6,29.73,South,169,2.0,5.0,84,0.00,,OVC110,0.00,VWS V14.01,2013-04-12 03:07:00,
2013-04-11 23:12:00,70.7,65.3,29.73,SSE,150,4.0,5.0,83,0.00,,OVC110,0.00,VWS V14.01,2013-04-12 03:12:00,
2013-04-11 23:17:00,70.8,65.4,29.73,SSW,194,2.0,5.0,83,0.00,,OVC110,0.00,VWS V14.01,2013-04-12 03:17:00,
2013-04-11 23:22:00,70.7,65.3,29.73,South,186,1.0,5.0,83,0.00,,OVC110,0.00,VWS V14.01,2013-04-12 03:22:00,
2013-04-11 23:27:00,70.7,65.3,29.73,SW,216,3.0,5.0,83,0.00,,OVC110,0.00,VWS V14.01,2013-04-12 03:27:00,
2013-04-11 23:32:00,70.7,65.3,29.74,SSW,194,1.0,5.0,83,0.00,,OVC110,0.00,VWS V14.01,2013-04-12 03:32:00,
2013-04-11 23:37:00,70.6,65.2,29.74,West,264,3.0,5.0,83,0.00,,OVC110,0.00,VWS V14.01,2013-04-12 03:37:00,
2013-04-11 23:42:00,70.6,65.2,29.74,West,261,0.0,5.0,83,0.00,,OVC110,0.00,VWS V14.01,2013-04-12 03:42:00,
2013-04-11 23:48:00,70.4,65.0,29.74,West,277,1.0,5.0,83,0.00,,OVC110,0.00,VWS V14.01,2013-04-12 03:48:00,
2013-04-11 23:53:00,70.3,64.9,29.74,SSW,212,0.0,5.0,83,0.00,,OVC110,0.00,VWS V14.01,2013-04-12 03:53:00,
2013-04-11 23:58:00,70.3,64.9,29.74,SSW,208,2.0,5.0,83,0.00,,OVC110,0.00,VWS V14.01,2013-04-12 03:58:00,